(89) Julia
ephemeris date magn radius delta ra dec elong phase
Today20 Jul 20259.22.182 AU1.224 AU21h42m-13°43'153.8°11.9°
Opposition10 Aug 20258.52.153 AU1.141 AU21h20m-11°39'176.1°1.8°
(89) Julia - 2025-07-20
astro.vanbuitenen.nl


 
-1 year
-1 month
-1 day
Now
+1 day
+1 month
+1 year

The interactive orbit chart above shows the body's path through the solar system and its position at the given date. Green and blue lines are shown perpendicular to the ecliptic plane: Green if the path is above the ecliptic plane, blue if it is below. (Left-click and drag to rotate the view; Right-click and drag to move the view; Use scroll wheel to zoom in our out.)

The orbital elements of Julia are:

            e (Eccentricity)                : 0.1838954
            a (Semimajor axis)              : 2.5512714
            i (Inclination)                 : 16.12261
            Ω (Longitude of ascending node) : 311.52003
            ω (Argument of perihelion)      : 45.17067
            M (Mean anomaly)                : 310.02214
            Epoch                           : 2025 May 05

            L (Longitude of perihelion)     : 355.54140
            B (Latitude of perihelion)      : 11.35826
            P (Orbital period in years)     : 4.08            
        

The light curve chart below shows the estimated development of the minor planet's magnitude.


The all-sky chart below shows the path of the minor planet over the same period as the light curve. The current position is marked yellow.





The following chart shows the path of the minor planet in the next few days. The field of view is optimized for (~10x50) binoculars and finderscopes. A more printer-friendly version of the same chart can be found below.




Ephemerides:
Date       Time       RA (2000)    DEC (2000)    delta   radius  elong  phase   PA    magn
2025-07-20 00:00 UT   21 42 51.6   -13 43 23     1.224    2.182  153.8   11.9   251    9.2 
2025-07-20 07:12 UT   21 42 36.8   -13 41 34     1.222    2.182  154.1   11.7   251    9.2 
2025-07-21 00:00 UT   21 42 01.7   -13 37 19     1.217    2.181  154.9   11.4   251    9.2 
2025-07-22 00:00 UT   21 41 10.2   -13 31 17     1.211    2.179  156.0   10.9   250    9.2 
2025-07-23 00:00 UT   21 40 17.0   -13 25 17     1.206    2.178  157.2   10.4   250    9.1 
2025-07-24 00:00 UT   21 39 22.2   -13 19 19     1.200    2.176  158.3    9.9   249    9.1 
2025-07-25 00:00 UT   21 38 25.9   -13 13 22     1.195    2.175  159.4    9.4   249    9.1 
2025-07-26 00:00 UT   21 37 28.2   -13 07 27     1.189    2.174  160.6    8.9   248    9.0 
2025-07-27 00:00 UT   21 36 29.0   -13 01 35     1.185    2.172  161.7    8.4   248    9.0 
2025-07-28 00:00 UT   21 35 28.5   -12 55 43     1.180    2.171  162.8    7.9   247    9.0 
2025-07-29 00:00 UT   21 34 26.8   -12 49 53     1.175    2.170  164.0    7.4   246    8.9 
2025-07-30 00:00 UT   21 33 23.9   -12 44 05     1.171    2.168  165.1    6.9   245    8.9 
2025-07-31 00:00 UT   21 32 19.9   -12 38 19     1.167    2.167  166.3    6.4   244    8.9 
2025-08-01 00:00 UT   21 31 14.9   -12 32 33     1.164    2.166  167.4    5.9   242    8.8 
2025-08-02 00:00 UT   21 30 08.9   -12 26 50     1.160    2.164  168.5    5.3   241    8.8 
2025-08-03 00:00 UT   21 29 02.1   -12 21 07     1.157    2.163  169.7    4.8   238    8.8 
2025-08-04 00:00 UT   21 27 54.5   -12 15 26     1.154    2.162  170.8    4.3   236    8.7 
2025-08-05 00:00 UT   21 26 46.3   -12 09 46     1.151    2.160  171.9    3.8   232    8.7 
2025-08-06 00:00 UT   21 25 37.4   -12 04 08     1.149    2.159  172.9    3.3   228    8.7 
2025-08-07 00:00 UT   21 24 28.0   -11 58 31     1.147    2.158  173.9    2.9   222    8.6 
2025-08-08 00:00 UT   21 23 18.2   -11 52 55     1.145    2.156  174.8    2.5   213    8.6 
2025-08-09 00:00 UT   21 22 08.1   -11 47 20     1.143    2.155  175.5    2.1   202    8.6 
2025-08-10 00:00 UT   21 20 57.7   -11 41 47     1.142    2.154  176.0    1.9   187    8.6 
2025-08-11 00:00 UT   21 19 47.2   -11 36 16     1.140    2.153  176.2    1.8   169    8.5 
2025-08-12 00:00 UT   21 18 36.7   -11 30 45     1.139    2.151  176.0    1.9   152    8.5 
2025-08-13 00:00 UT   21 17 26.1   -11 25 16     1.139    2.150  175.4    2.2   137    8.6 
2025-08-14 00:00 UT   21 16 15.8   -11 19 49     1.138    2.149  174.7    2.5   126    8.6 
2025-08-15 00:00 UT   21 15 05.6   -11 14 23     1.138    2.148  173.7    2.9   118    8.6 
2025-08-16 00:00 UT   21 13 55.8   -11 08 58     1.138    2.147  172.7    3.4   112    8.6 
2025-08-17 00:00 UT   21 12 46.4   -11 03 35     1.139    2.145  171.7    3.9   108    8.7 
2025-08-18 00:00 UT   21 11 37.5   -10 58 13     1.139    2.144  170.6    4.4   105    8.7 
2025-08-19 00:00 UT   21 10 29.2   -10 52 53     1.140    2.143  169.5    4.9   102    8.7 


    Terminology:
            
    delta:  distance between minor planet and earth in AU
    radius: distance between minor planet and sun in AU
    magn:   magnitude (brightness) estimate    
    ra:     right ascension in hours (24h = 360deg)
    dec:    declination in degrees
    elong:  elongation in degrees (angle sun-earth-minor planet)    
    phase:  phase angle in degrees (angle sun-minor planet-earth)        
    AU:     Astronomical Unit (mean distance between earth and sun: 149597870.7 km
    

Orbital elements provided by the MPC (Minor Planet Center).
Calculations by a modified version of AAPlus, a C# implementation of the AA+ project by PJ Naughter from the algorithms presented in the book "Astronomical Algorithms" by Jean Meeus.
NGC2000 dso catalog and star labels from VizieR as provided by the Strasbourg astronomical Data Center.
Tycho2 catalog from the ESO archive.